Home > Time Zones > World Clock > Weather > Norway > Ski > Past weeks

Flag Weather past 2 weeks in Ski, Norway

Now
48 °F

Cool.


Feels Like: 38 °F
Forecast: 30 / 34 °F
Wind: 39 mph from Southeast

Location: Oslo / Fornebu

Current Time: Nov 28, 2014 at 1:30:01 AM

Latest Report: Nov 28, 2014 at 12:50 AM


Visibility: N/A

Pressure: 30.01 "Hg

Humidity: 71%

Dew point: 39 °F

Location of SkiLocation

Historic Weather in Ski — Graph

°F

Ski temperature yesterday

Maximum temperature yesterday: 50 °F (at 12:50 AM)
Minimum temperature yesterday: 46 °F (at 2:50 PM)
Average temperature yesterday: 48 °F

Past Weeks' High & Low Weather Summary

 TemperatureHumidityPressure
High54 °F (Nov 15, 3:50 AM)100% (Nov 18, 4:20 AM)30.45 "Hg (Nov 18, 4:20 AM)
Low45 °F (Nov 21, 12:50 PM)58% (Nov 22, 10:50 AM)29.77 "Hg (Nov 13, 12:20 AM)
Average49 °F81%30.06 "Hg
* Reported Nov 13 12:20 AM — Nov 28 12:20 AM, Ski, Weather by CustomWeather, © 2014

Note: Actual official high and low records may vary slightly from our data, if they occured in-between our weather recording intervals... More about our weather records

Advertising

Ski weather history for previous 24 hours

 ConditionsComfort  
Time TempWeatherWind HumidityBarometerVisibility
12:20 AM
Nov 28
48 °FCool.41 mph71%29.98 "HgN/A
11:50 PM
Nov 27
48 °FSprinkles. Overcast.41 mph71%29.98 "HgN/A
11:20 PM48 °FSprinkles. Overcast.37 mph71%29.98 "HgN/A
10:50 PM48 °FLight rain. Overcast.39 mph71%29.98 "HgN/A
10:20 PM48 °FCool.36 mph66%29.98 "HgN/A
9:50 PM48 °FCool.35 mph66%29.98 "HgN/A
9:20 PM46 °FCool.37 mph76%29.98 "HgN/A
8:50 PM50 °FCool.40 mph62%29.95 "HgN/A
8:20 PM48 °FCool.41 mph66%29.95 "HgN/A
7:50 PM48 °FCool.45 mph66%29.95 "HgN/A
7:20 PM48 °FCool.44 mph66%29.95 "HgN/A
6:50 PM48 °FCool.43 mph66%29.95 "HgN/A
6:20 PM48 °FCool.41 mph66%29.92 "HgN/A
5:50 PM48 °FCool.43 mph66%29.92 "HgN/A
5:20 PM48 °FCool.41 mph71%29.92 "HgN/A
4:50 PM48 °FCool.41 mph71%29.92 "HgN/A
4:20 PM48 °FCool.44 mph71%29.92 "HgN/A
3:50 PM46 °FCool.46 mph82%29.89 "HgN/A
3:20 PM48 °FSprinkles. Cloudy.43 mph82%29.92 "HgN/A
2:50 PM46 °FSprinkles. Cloudy.39 mph93%29.89 "Hg6 mi
2:20 PM48 °FSprinkles. Cloudy.37 mph82%29.92 "HgN/A
1:50 PM48 °FCool.44 mph82%29.89 "HgN/A
1:20 PM48 °FCool.43 mph76%29.89 "HgN/A
12:50 PM48 °FCool.38 mph82%29.89 "HgN/A
12:20 PM48 °FCool.35 mph82%29.92 "HgN/A
11:50 AM48 °FCool.39 mph82%29.89 "HgN/A
11:20 AM48 °FCool.46 mph82%29.89 "HgN/A
10:50 AM48 °FCool.45 mph82%29.89 "HgN/A
10:20 AM48 °FCool.44 mph82%29.89 "HgN/A
9:50 AM48 °FCool.43 mph82%29.89 "HgN/A
9:20 AM48 °FCool.44 mph82%29.89 "HgN/A
8:50 AM48 °FCool.41 mph82%29.89 "HgN/A
8:20 AM48 °FCool.41 mph82%29.89 "HgN/A
7:50 AM48 °FCool.39 mph87%29.89 "HgN/A
7:20 AM48 °FCool.45 mph82%29.86 "HgN/A
6:50 AM48 °FCool.40 mph82%29.86 "HgN/A
6:20 AM48 °FCool.41 mph82%29.86 "HgN/A
5:50 AM48 °FCool.41 mph87%29.86 "HgN/A
5:20 AM48 °FCool.43 mph82%29.86 "HgN/A
4:50 AM48 °FSprinkles. Overcast.39 mph87%29.89 "HgN/A
4:20 AM48 °FSprinkles. Overcast.39 mph82%29.89 "HgN/A
3:50 AM48 °FSprinkles. Overcast.32 mph82%29.92 "HgN/A
3:20 AM48 °FCool.33 mph82%29.89 "HgN/A
2:50 AM48 °FSprinkles. Overcast.33 mph82%29.89 "HgN/A
2:20 AM48 °FCool.31 mph82%29.92 "HgN/A
1:50 AM48 °FCool.30 mph82%29.92 "HgN/A
1:20 AM48 °FCool.35 mph76%29.92 "HgN/A
Weather by CustomWeather, © 2014

See weather overviewHow to use our weather pages